This is the latest recevied weather packets stored in our database for station/object OK1FET-4. If no packets are shown the sender has not sent any weather packets the latest 10 day(s).
| Time | Temp. | Humidity | Pressure | Rain* | Wind** | Luminosity | Snow |
|---|---|---|---|---|---|---|---|
| 1788189480 | 25° C | 47% | 1015.9 hPa | - | - | - | - |
| 1788189178 | 25° C | 47% | 1015.9 hPa | - | - | - | - |
| 1788188877 | 25° C | 49% | 1016 hPa | - | - | - | - |
| 1788188576 | 25° C | 49% | 1016.1 hPa | - | - | - | - |
| 1788188274 | 25° C | 46% | 1015.9 hPa | - | - | - | - |
| 1788187973 | 25.56° C | 47% | 1016.1 hPa | - | - | - | - |
| 1788187672 | 25.56° C | 50% | 1016.3 hPa | - | - | - | - |
| 1788187370 | 25° C | 48% | 1016.2 hPa | - | - | - | - |
| 1788187069 | 24.44° C | 50% | 1016.2 hPa | - | - | - | - |
| 1788186768 | 24.44° C | 49% | 1016.3 hPa | - | - | - | - |
| 1788186466 | 24.44° C | 49% | 1016.2 hPa | - | - | - | - |
| 1788186165 | 25° C | 48% | 1016.3 hPa | - | - | - | - |
| 1788185864 | 25.56° C | 49% | 1016.2 hPa | - | - | - | - |
| 1788185562 | 25° C | 50% | 1016.2 hPa | - | - | - | - |
| 1788185261 | 24.44° C | 51% | 1016.1 hPa | - | - | - | - |
| 1788184960 | 25° C | 51% | 1016.2 hPa | - | - | - | - |
| 1788184658 | 24.44° C | 49% | 1016.2 hPa | - | - | - | - |
| 1788184357 | 25° C | 51% | 1016 hPa | - | - | - | - |
| 1788184056 | 25° C | 53% | 1016.2 hPa | - | - | - | - |
| 1788183754 | 25.56° C | 52% | 1016.2 hPa | - | - | - | - |
| 1788183453 | 25.56° C | 55% | 1016.2 hPa | - | - | - | - |
| 1788183151 | 24.44° C | 58% | 1016.2 hPa | - | - | - | - |
| 1788182850 | 24.44° C | 57% | 1016.2 hPa | - | - | - | - |
| 1788182549 | 23.89° C | 57% | 1016.2 hPa | - | - | - | - |
| 1788182248 | 23.33° C | 56% | 1016.2 hPa | - | - | - | - |
* Rain since midnight (hover to see other rain measurements)
** Current wind speed in m/s (hover to see current wind gust speed)